Regional Weather Roundup
Issued by NWS

Home | Current Version | Previous Version | Graphics & Text | Print | Product List | Glossary On
Versions: 1 2 3 4 5 6 7 8 9 10 11 12 13 14 15 16 17 18 19 20 21 22 23 24 25 26 27 28 29 30 31 32 33 34 35 36 37 38 39 40 41 42 43 44 45 46 47 48 49 50
000
ASUS43 KMPX 271110
RWRMN
WEATHER ROUNDUP FOR MINNESOTA
NATIONAL WEATHER SERVICE TWIN CITIES/CHANHASSEN MN
600 AM CDT FRI MAR 27 2015


NOTE: "FAIR" INDICATES FEW OR NO CLOUDS BELOW 12,000 FEET WITH NO
SIGNIFICANT WEATHER AND/OR OBSTRUCTIONS TO VISIBILITY. N/A MEANS
CURRENT SKY AND/OR WEATHER CONDITIONS ARE NOT AVAILABLE.

MNZ060>063-068>070-271200-
   Twin Cities Metro

CITY           SKY/WX    TMP DP  RH WIND       PRES   REMARKS
TWIN CITIES    FAIR      19   3  49 N7        30.26S WCI  10
ST PAUL        CLEAR     19   5  54 N7        30.28R WCI  10
CRYSTAL        CLEAR     18   4  54 N3        30.26R
BLAINE         CLEAR     16   7  67 N3        30.26R
LAKEVILLE      CLEAR     16   3  57 N3        30.25S
EDEN PRAIRIE   CLEAR     19   3  49 N6        30.25R WCI  11
SOUTH ST PAUL  CLEAR     20   4  50 N3        30.27R
LAKE ELMO      FAIR      19   7  58 N3        30.26S
$$
MNZ001>005-007-008-013>017-022>024-027-028-271200-
   Northwest Minnesota

CITY           SKY/WX    TMP DP  RH WIND       PRES   REMARKS
BEMIDJI        CLEAR      4  -1  81 CALM      30.25S
HALLOCK        PTCLDY    12   9  85 S5        30.25F WCI   4
ROSEAU         CLEAR     12   9  85 SE3       30.25F
WARROAD        CLEAR     14  10  85 SE3       30.25F
THIEF RVR FALL CLEAR     16  14  93 SE3       30.25F
CROOKSTON      PTCLDY    12   9  85 SE5       30.27F WCI   4
FOSSTON        CLEAR      7   1  78 CALM      30.26F
DETROIT LAKES  CLEAR     12  10  92 CALM      30.25F
MOORHEAD       PTCLDY    10  10 100 CALM      30.29S
PARK RAPIDS    CLEAR      9   1  70 CALM      30.25R
MAHNOMEN       FAIR      10   7  87 SE6       30.25F WCI   0
$$
MNZ006-009>011-018-025>026-271200-
   North Central Minnesota

CITY           SKY/WX    TMP DP  RH WIND       PRES   REMARKS
BAUDETTE       CLEAR      8   4  83 CALM      30.24F
FLAG ISLAND    CLEAR      7   3  85 CALM      30.24F
INTL FALLS     CLEAR      4   0  83 CALM      30.26R
WASKISH        CLEAR      5   1  85 CALM      30.26F
BIG FORK       CLEAR      3   1  92 CALM      30.25R
LONGVILLE      CLEAR      7   3  85 CALM      30.27R
GRAND RAPIDS   CLEAR      9   3  78 CALM      30.24R
CRANE LAKE     CLEAR      1   0  92 CALM      30.28S
ORR            CLEAR      1  -4  78 CALM      30.22S
COOK           CLEAR      3   0  85 CALM      30.25R
WALKER         FAIR       5   1  81 CALM      30.26R
$$
MNZ012-019>021-037-271200-
   Northeast Minnesota

CITY           SKY/WX    TMP DP  RH WIND       PRES   REMARKS
DULUTH         CLEAR     11   3  70 N5        30.22R WCI   3
ELY            CLEAR      1  -2  85 CALM      30.23S
HIBBING        CLEAR      2  -2  83 CALM      30.24S
EVELETH        CLEAR      5   1  85 CALM      30.24S
DULUTH HARBOR  CLEAR     19   9  63 N13       30.29R WCI   7
TWO HARBORS    CLEAR     16   5  62 N5        30.23R WCI   9
SILVER BAY     CLEAR     10   3  72 CALM      30.23S
GRAND MARAIS     N/A     11   0  61 NE7       30.30R WCI   0
G MARAIS ARPRT CLEAR      0  -8  71 N10       30.17S WCI -17
$$
MNZ029>031-032-039>041-046>048-054>057-064-271200-
   West Central Minnesota

CITY           SKY/WX    TMP DP  RH WIND       PRES   REMARKS
FERGUS FALLS   CLEAR     12   7  79 CALM      30.30S
WHEATON        PTCLDY    14  10  85 CALM      30.30S
MORRIS         CLEAR     12  10  92 N3        30.26F
ALEXANDRIA     CLEAR     15   4  61 CALM      30.26S
ELBOW LAKE     FAIR      13  11  92 CALM      30.26F
WADENA         CLEAR      9   3  78 CALM      30.25F
GLENWOOD       CLEAR     14   7  73 NE7       30.26S WCI   4
APPLETON         N/A     16  12  86 CALM      30.28S
BENSON         CLEAR     10   9  92 CALM      30.27F
ORTONVILLE     CLEAR     16  10  79 CALM      30.27F
MADISON        CLEAR     16  12  86 NW5       30.28F WCI   9
WILLMAR        FAIR      14   5  67 N5        30.28R WCI   6
$$
MNZ033>034-036-042>043-049>051-058-059-271200-
   Central Minnesota

CITY           SKY/WX    TMP DP  RH WIND       PRES   REMARKS
ST CLOUD       CLEAR     12   6  77 NW3       30.27R
SAUK CENTRE    FAIR      12   6  76 CALM      30.28R
PAYNESVILLE    CLEAR      4   1  88 SW3       30.28R
AITKIN         CLEAR      9   3  78 CALM      30.26R
PINE RIVER     CLEAR      7   3  85 CALM      30.29S
BRAINERD       CLEAR     10   4  76 CALM      30.27R
STAPLES        CLEAR      9   1  72 CALM      30.27R
LONG PRAIRIE   FAIR      12   5  73 CALM      30.27S
LITTLE FALLS   CLEAR     10   3  72 CALM      30.28R
LITCHFIELD     CLEAR     14   7  73 CALM      30.28R
BUFFALO        CLEAR     18   5  57 VRB3      30.28R
MAPLE LAKE     CLEAR     16   9  76 NW3       30.28R
$$
MNZ037-044-045-052-053-271200-
   East Central Minnesota

CITY           SKY/WX    TMP DP  RH WIND       PRES   REMARKS
PRINCETON      CLEAR     16   7  67 CALM      30.26S
MORA           CLEAR     14   3  62 CALM      30.28S
CAMBRIDGE      CLEAR     16   5  62 CALM      30.26R
RUSH CITY      CLEAR     15   5  65 CALM      30.27S
MOOSE LAKE     CLEAR     12   1  62 CALM      30.25R
HINCKLEY       FAIR      14   3  62 N3        30.26S
CLOQUET        CLEAR      9   1  72 NW6       30.24R WCI  -1
MCGREGOR       CLEAR     12   5  73 CALM      30.26R
$$
MNZ071>073-080-081-089-090-097-098-271200-
   Southwest Minnesota

CITY           SKY/WX    TMP DP  RH WIND       PRES   REMARKS
MONTEVIDEO     CLEAR     16  12  86 N3        30.29S
GRANITE FALLS  CLEAR     15  12  88 CALM      30.29S
CANBY          CLEAR     15  11  84 W3        30.29S
MARSHALL       FAIR      12   7  79 NW7       30.27S WCI   2
REDWOOD FALLS  CLEAR     20   8  60 N6        30.28R WCI  12
OLIVIA         CLEAR     16  10  79 N5        30.27R WCI   9
PIPESTONE      CLEAR     16  10  79 NE3       30.24R
WINDOM         CLEAR     14  10  85 NW8       30.24R WCI   3
WORTHINGTON    CLEAR     16   9  73 NW7       30.25R WCI   6
JACKSON        CLEAR     18  12  79 NW8       30.24R WCI   7
TRACY          CLEAR     17  13  84 NW7       30.26R WCI   7
SLAYTON        CLEAR     14  11  87 CALM      30.25R
$$
MNZ065>067-074>077-082>085-091>093-271200-
   South Central Minnesota

CITY           SKY/WX    TMP DP  RH WIND       PRES   REMARKS
MANKATO        CLEAR     18   7  62 N7        30.24R WCI   8
NEW ULM        CLEAR     18   7  62 CALM      30.26R
ST JAMES       CLEAR     18  12  79 NW8       30.27R WCI   7
FAIRMONT       CLEAR     18  10  73 NW6       30.23R WCI   9
GLENCOE        CLEAR     12   8  83 NW5       30.26R WCI   5
FARIBAULT      CLEAR     12   7  79 CALM      30.24S
OWATONNA       CLEAR      9   3  78 CALM      30.23R
WASECA         CLEAR     18  10  73 N7        30.24R WCI   8
ALBERT LEA     CLEAR     16  10  79 N5        30.21S WCI   9
$$
MNZ078>079-086>088-094>096-271200-
   Southeast Minnesota

CITY           SKY/WX    TMP DP  RH WIND       PRES   REMARKS
ROCHESTER      CLEAR     15   5  64 NW6       30.21R WCI   6
RED WING       CLEAR     19   7  58 NE3       30.25R
STANTON        CLEAR     11   8  84 CALM      30.24R
DODGE CENTER   CLEAR     16   5  62 N7        30.21R WCI   6
WINONA         CLEAR     19  14  79 NW5       30.25R WCI  13
AUSTIN         CLEAR     16   7  67 N3        30.21R
PRESTON        CLEAR     16   8  71 CALM      30.20R
$$
ABBREVIATIONS USED IN REMARKS
   TC - TEMPERATURES IN CELSIUS
  WCI - WIND CHILL INDEX
   HX - HEAT INDEX
  VSB - VISIBILITY
$$


USA.gov is the U.S. government's official web portal to all federal, state and local government web resources and services.